GW2980 Weather Reports


Display with metric or nautical units.
time (UTC)temp
F
wind
direction
speed
MPH
gust
MPH
rain 1hr
in
rain 24hr
in
rain mn
in
humidity
%
barometer
mb
20260505101836 69 0.0 0.0 0.00 0.00 0.00 35 949.0
20260505101536 69 0.0 0.0 0.00 0.00 0.00 35 949.0
20260505101235 69 0.0 0.0 0.00 0.00 0.00 35 949.0
20260505100936 72 0.0 0.0 0.00 0.00 0.00 32 949.0
20260505100336 74 0.0 0.0 0.00 0.00 0.00 31 949.0
20260505095736 77 0.0 0.0 0.00 0.00 0.00 31 949.0
20260505095436 77 0.0 0.0 0.00 0.00 0.00 31 949.0
20260505095136 77 0.0 0.0 0.00 0.00 0.00 31 949.0
20260505094836 78 0.0 0.0 0.00 0.00 0.00 30 949.6
20260505094536 78 0.0 0.0 0.00 0.00 0.00 30 949.0
20260505094236 75 0.0 0.0 0.00 0.00 0.00 31 949.0
20260505093936 77 0.0 0.0 0.00 0.00 0.00 30 949.0
20260505093635 80 0.0 0.0 0.00 0.00 0.00 28 949.0
20260505093336 86 0.0 0.0 0.00 0.00 0.00 25 949.0
20260505093036 92 0.0 0.0 0.00 0.00 0.00 24 949.0
20260505092736 88 0.0 0.0 0.00 0.00 0.00 26 949.0
20260505092136 74 0.0 0.0 0.00 0.00 0.00 32 949.0
20260505091836 75 0.0 0.0 0.00 0.00 0.00 32 949.0
20260505091236 82 0.0 0.0 0.00 0.00 0.00 28 949.0
20260505090936 89 0.0 0.0 0.00 0.00 0.00 25 949.0
20260505090636 89 0.0 0.0 0.00 0.00 0.00 24 949.0
20260505090336 93 0.0 0.0 0.00 0.00 0.00 23 949.0
20260505090036 97 0.0 0.0 0.00 0.00 0.00 22 949.0
20260505085736 99 0.0 0.0 0.00 0.00 0.00 21 949.0
20260505085436 100 0.0 0.0 0.00 0.00 0.00 21 949.0
20260505085135 98 0.0 0.0 0.00 0.00 0.00 22 949.0
20260505084836 99 0.0 0.0 0.00 0.00 0.00 23 949.0
20260505084236 98 0.0 0.0 0.00 0.00 0.00 23 949.0
20260505082736 92 0.0 0.0 0.00 0.00 0.00 26 949.0
20260505082436 91 0.0 0.0 0.00 0.00 0.00 27 949.0
20260505082136 89 0.0 0.0 0.00 0.00 0.00 28 949.0
20260505081535 80 0.0 0.0 0.00 0.00 0.00 31 949.0
20260505080936 85 0.0 0.0 0.00 0.00 0.00 30 949.0
20260505080635 80 0.0 0.0 0.00 0.00 0.00 33 949.0
20260505080335 78 0.0 0.0 0.00 0.00 0.00 33 949.0
20260505080036 81 0.0 0.0 0.00 0.00 0.00 32 949.0
20260505075736 82 0.0 0.0 0.00 0.00 0.00 31 949.0
20260505075435 84 0.0 0.0 0.00 0.00 0.00 31 949.0
20260505075136 82 0.0 0.0 0.00 0.00 0.00 31 949.0
20260505074836 82 0.0 0.0 0.00 0.00 0.00 31 949.0
20260505074536 83 0.0 0.0 0.00 0.00 0.00 31 949.0
20260505073936 90 0.0 0.0 0.00 0.00 0.00 29 949.0
20260505073635 90 0.0 0.0 0.00 0.00 0.00 29 949.0
20260505073336 89 0.0 0.0 0.00 0.00 0.00 30 949.0
20260505073036 89 0.0 0.0 0.00 0.00 0.00 30 949.0
20260505072736 87 0.0 0.0 0.00 0.00 0.00 31 949.0
20260505072436 84 0.0 0.0 0.00 0.00 0.00 34 949.0
20260505072136 83 0.0 0.0 0.00 0.00 0.00 35 949.0
20260505071536 76 0.0 0.0 0.00 0.00 0.00 41 949.0
20260505070635 62 0.0 0.0 0.00 0.00 0.00 55 949.0
20260505070336 59 0.0 0.0 0.00 0.00 0.00 59 950.0
20260505065735 55 0.0 0.0 0.00 0.00 0.00 64 950.0
20260505065436 54 0.0 0.0 0.00 0.00 0.00 66 950.0
20260505065136 54 0.0 0.0 0.00 0.00 0.00 66 950.0
20260505064836 53 0.0 0.0 0.00 0.00 0.00 68 950.0
20260505064536 53 0.0 0.0 0.00 0.00 0.00 68 950.0
20260505064236 53 0.0 0.0 0.00 0.00 0.00 68 950.0
20260505063635 52 0.0 0.0 0.00 0.00 0.00 69 950.0
20260505063336 52 0.0 0.0 0.00 0.00 0.00 69 950.0
20260505063036 52 0.0 0.0 0.00 0.00 0.00 69 950.0
20260505062436 51 0.0 0.0 0.00 0.00 0.00 70 950.0
20260505061836 51 0.0 0.0 0.00 0.00 0.00 70 950.0
20260505061535 51 0.0 0.0 0.00 0.00 0.00 70 950.0
20260505061236 51 0.0 0.0 0.00 0.00 0.00 70 950.0
20260505060936 51 0.0 0.0 0.00 0.00 0.00 70 950.0
20260505060635 50 0.0 0.0 0.00 0.00 0.00 72 950.0
20260505060336 50 0.0 0.0 0.00 0.00 0.00 72 950.0
20260505060036 50 0.0 0.0 0.00 0.00 0.00 72 950.0
20260505055736 50 0.0 0.0 0.00 0.00 0.00 72 950.0
20260505055436 50 0.0 0.0 0.00 0.00 0.00 72 950.0
20260505055136 50 0.0 0.0 0.00 0.00 0.00 72 950.0
20260505054836 49 0.0 0.0 0.00 0.00 0.00 73 950.0
20260505054536 49 0.0 0.0 0.00 0.00 0.00 73 950.0
20260505054235 49 0.0 0.0 0.00 0.00 0.00 73 950.0
20260505053936 49 0.0 0.0 0.00 0.00 0.00 73 950.0
20260505053335 49 0.0 0.0 0.00 0.00 0.00 75 950.0
20260505052435 49 0.0 0.0 0.00 0.00 0.00 75 950.0
20260505052136 49 0.0 0.0 0.00 0.00 0.00 75 950.0
20260505051836 49 0.0 0.0 0.00 0.00 0.00 75 950.0
20260505051536 49 0.0 0.0 0.00 0.00 0.00 75 950.0
20260505050936 49 0.0 0.0 0.00 0.00 0.00 75 950.0
20260505050636 49 0.0 0.0 0.00 0.00 0.00 75 950.0
20260505050336 49 0.0 0.0 0.00 0.00 0.00 75 950.0
20260505041536 48 0.0 0.0 0.00 0.00 0.00 75 949.0
20260505041236 49 0.0 0.0 0.00 0.00 0.00 74 950.2
20260505040936 49 0.0 0.0 0.00 0.00 0.00 74 950.2
20260505040335 49 0.0 0.0 0.00 0.00 0.00 74 950.2
20260505040035 49 0.0 0.0 0.00 0.00 0.00 74 950.2
20260505035435 49 0.0 0.0 0.00 0.00 0.00 74 950.2
20260505035136 49 0.0 0.0 0.00 0.00 0.00 74 950.2
20260505034836 49 0.0 0.0 0.00 0.00 0.00 74 950.2
20260505034536 49 0.0 0.0 0.00 0.00 0.00 74 950.2
20260505034236 49 0.0 0.0 0.00 0.00 0.00 74 950.2
20260505033636 49 0.0 0.0 0.00 0.00 0.00 74 950.0
20260505033335 49 0.0 0.0 0.00 0.00 0.00 74 950.0
20260505032436 49 0.0 0.0 0.00 0.00 0.00 74 950.0
20260505032135 49 0.0 0.0 0.00 0.00 0.00 74 950.0
20260505031836 49 0.0 0.0 0.00 0.00 0.00 74 950.0
20260505031536 49 0.0 0.0 0.00 0.00 0.00 74 950.0
20260505030636 49 0.0 0.0 0.00 0.00 0.00 74 950.0
20260505030336 49 0.0 0.0 0.00 0.00 0.00 74 950.0
20260505025736 49 0.0 0.0 0.00 0.00 0.00 74 950.1
20260505025436 49 0.0 0.0 0.00 0.00 0.00 74 950.1
20260505025135 49 0.0 0.0 0.00 0.00 0.00 74 950.1
20260505024835 49 0.0 0.0 0.00 0.00 0.00 74 950.1
20260505024536 49 0.0 0.0 0.00 0.00 0.00 74 950.1
20260505024236 49 0.0 0.0 0.00 0.00 0.00 74 950.1
20260505023936 49 0.0 0.0 0.00 0.00 0.00 73 950.0
20260505023336 49 0.0 0.0 0.00 0.00 0.00 73 950.0
20260505023036 49 0.0 0.0 0.00 0.00 0.00 73 950.0
20260505022735 49 0.0 0.0 0.00 0.00 0.00 73 950.0
20260505022436 49 0.0 0.0 0.00 0.00 0.00 73 950.0
20260505022136 49 0.0 0.0 0.00 0.00 0.00 73 950.0
20260505021836 49 0.0 0.0 0.00 0.00 0.00 73 950.0
20260505021536 49 0.0 0.0 0.00 0.00 0.00 73 950.0
20260505021235 49 0.0 0.0 0.00 0.00 0.00 73 950.0
20260505020935 49 0.0 0.0 0.00 0.00 0.00 73 950.0
20260505020636 49 0.0 0.0 0.00 0.00 0.00 73 950.0
20260505020336 50 0.0 0.0 0.00 0.00 0.00 73 950.3
20260505020036 50 0.0 0.0 0.00 0.00 0.00 73 950.3
20260505015736 50 0.0 0.0 0.00 0.00 0.00 73 950.3
20260505015436 50 0.0 0.0 0.00 0.00 0.00 73 950.3
20260505015136 50 0.0 0.0 0.00 0.00 0.00 73 950.3
20260505014836 50 0.0 0.0 0.00 0.00 0.00 73 950.3
20260505014536 50 0.0 0.0 0.00 0.00 0.00 72 950.4
20260505013936 50 0.0 0.0 0.00 0.00 0.00 72 950.4
20260505013636 50 0.0 0.0 0.00 0.00 0.00 72 950.4
20260505013335 50 0.0 0.0 0.00 0.00 0.00 72 950.4
20260505013036 50 0.0 0.0 0.00 0.00 0.00 72 950.4
20260505012736 50 0.0 0.0 0.00 0.00 0.00 72 950.4
20260505012436 50 0.0 0.0 0.00 0.00 0.00 72 950.4
20260505012136 50 0.0 0.0 0.00 0.00 0.00 72 950.4
20260505011836 50 0.0 0.0 0.00 0.00 0.00 72 950.4
20260505011536 50 0.0 0.0 0.00 0.00 0.00 72 950.4
20260505011235 50 0.0 0.0 0.00 0.00 0.00 72 950.4
20260505010935 50 0.0 0.0 0.00 0.00 0.00 72 950.4
20260505010636 50 0.0 0.0 0.00 0.00 0.00 72 950.4
20260505010336 50 0.0 0.0 0.00 0.00 0.00 72 950.4
20260505010035 50 0.0 0.0 0.00 0.00 0.00 72 950.4
20260505005736 50 0.0 0.0 0.00 0.00 0.00 72 950.4
20260505005436 50 0.0 0.0 0.00 0.00 0.00 72 950.0
20260505005135 51 0.0 0.0 0.00 0.00 0.00 69 950.0
20260505004835 51 0.0 0.0 0.00 0.00 0.00 69 950.0
20260505004536 51 0.0 0.0 0.00 0.00 0.00 69 950.0
20260505003935 51 0.0 0.0 0.00 0.00 0.00 69 950.0
20260505003635 51 0.0 0.0 0.00 0.00 0.00 69 950.0
20260505003036 51 0.0 0.0 0.00 0.00 0.00 69 950.0
20260505002736 51 0.0 0.0 0.00 0.00 0.00 69 950.0
20260505002436 51 0.0 0.0 0.00 0.00 0.00 69 950.0
20260505002136 51 0.0 0.0 0.00 0.00 0.00 69 950.0
20260505001536 51 0.0 0.0 0.00 0.00 0.00 69 950.0
20260505000035 52 0.0 0.0 0.00 0.00 0.00 67 950.0
20260504235736 52 0.0 0.0 0.00 0.00 0.00 67 950.0
20260504235436 52 0.0 0.0 0.00 0.00 0.00 67 950.0
20260504235136 52 0.0 0.0 0.00 0.00 0.00 67 950.0
20260504234835 52 0.0 0.0 0.00 0.00 0.00 67 950.0
20260504234535 52 0.0 0.0 0.00 0.00 0.00 67 950.0
20260504234236 52 0.0 0.0 0.00 0.00 0.00 67 950.0
20260504233936 52 0.0 0.0 0.00 0.00 0.00 67 950.0
20260504233635 52 0.0 0.0 0.00 0.00 0.00 67 950.0
20260504233335 52 0.0 0.0 0.00 0.00 0.00 67 950.4
20260504233035 52 0.0 0.0 0.00 0.00 0.00 67 950.4
20260504232735 52 0.0 0.0 0.00 0.00 0.00 67 950.4
20260504232435 52 0.0 0.0 0.00 0.00 0.00 67 950.4
20260504231835 52 0.0 0.0 0.00 0.00 0.00 67 950.4
20260504231536 52 0.0 0.0 0.00 0.00 0.00 67 950.4
20260504231235 52 0.0 0.0 0.00 0.00 0.00 67 950.4
20260504230935 52 0.0 0.0 0.00 0.00 0.00 67 950.4
20260504230336 53 0.0 0.0 0.00 0.00 0.00 66 950.0
20260504230035 53 0.0 0.0 0.00 0.00 0.00 66 950.0
20260504225736 53 0.0 0.0 0.00 0.00 0.00 66 950.0
20260504225135 53 0.0 0.0 0.00 0.00 0.00 66 950.0
20260504224836 53 0.0 0.0 0.00 0.00 0.00 66 950.0
20260504224536 53 0.0 0.0 0.00 0.00 0.00 66 950.0
20260504224238 53 0.0 0.0 0.00 0.00 0.00 66 950.0
20260504223642 53 0.0 0.0 0.00 0.00 0.00 66 950.0
20260504223341 53 0.0 0.0 0.00 0.00 0.00 66 950.0
20260504223038 53 0.0 0.0 0.00 0.00 0.00 66 950.0
20260504222742 53 0.0 0.0 0.00 0.00 0.00 66 950.0
20260504222442 53 0.0 0.0 0.00 0.00 0.00 66 950.4
20260504222136 53 0.0 0.0 0.00 0.00 0.00 66 950.4
20260504221835 53 0.0 0.0 0.00 0.00 0.00 66 950.4
20260504221535 53 0.0 0.0 0.00 0.00 0.00 66 950.4
20260504221235 53 0.0 0.0 0.00 0.00 0.00 66 950.4
20260504220635 54 0.0 0.0 0.00 0.00 0.00 64 950.0
20260504220336 54 0.0 0.0 0.00 0.00 0.00 64 950.0
20260504215435 55 0.0 0.0 0.00 0.00 0.00 63 950.0
20260504215136 55 0.0 0.0 0.00 0.00 0.00 63 950.0
20260504214836 55 0.0 0.0 0.00 0.00 0.00 63 950.0
20260504214536 55 0.0 0.0 0.00 0.00 0.00 63 950.0
20260504214236 55 0.0 0.0 0.00 0.00 0.00 63 950.0
20260504213936 55 0.0 0.0 0.00 0.00 0.00 63 950.0
20260504213636 55 0.0 0.0 0.00 0.00 0.00 63 950.0
20260504213335 55 0.0 0.0 0.00 0.00 0.00 63 950.0
20260504213036 55 0.0 0.0 0.00 0.00 0.00 63 950.0
20260504212736 55 0.0 0.0 0.00 0.00 0.00 63 950.0
20260504212436 55 0.0 0.0 0.00 0.00 0.00 62 950.2
20260504212136 55 0.0 0.0 0.00 0.00 0.00 62 950.2
20260504211536 55 0.0 0.0 0.00 0.00 0.00 62 950.0
20260504211236 55 0.0 0.0 0.00 0.00 0.00 62 950.0
20260504210935 56 0.0 0.0 0.00 0.00 0.00 59 949.0
20260504210636 56 0.0 0.0 0.00 0.00 0.00 59 949.0
20260504210336 56 0.0 0.0 0.00 0.00 0.00 59 949.0
20260504210036 56 0.0 0.0 0.00 0.00 0.00 59 949.0
20260504205736 56 0.0 0.0 0.00 0.00 0.00 59 949.0
20260504205435 56 0.0 0.0 0.00 0.00 0.00 57 949.0
20260504204836 56 0.0 0.0 0.00 0.00 0.00 57 949.0
20260504204536 56 0.0 0.0 0.00 0.00 0.00 53 949.0
20260504204236 56 0.0 0.0 0.00 0.00 0.00 53 949.0
20260504203636 57 0.0 0.0 0.00 0.00 0.00 55 949.0
20260504203336 57 0.0 0.0 0.00 0.00 0.00 55 949.0
20260504202736 57 0.0 0.0 0.00 0.00 0.00 55 949.0
20260504202435 57 0.0 0.0 0.00 0.00 0.00 54 948.0
20260504202136 57 0.0 0.0 0.00 0.00 0.00 54 948.0
20260504201836 57 0.0 0.0 0.00 0.00 0.00 54 948.0
20260504201536 57 0.0 0.0 0.00 0.00 0.00 54 948.0
20260504201236 57 0.0 0.0 0.00 0.00 0.00 54 948.0
20260504200936 57 0.0 0.0 0.00 0.00 0.00 54 948.0
20260504200636 57 0.0 0.0 0.00 0.00 0.00 61 948.0
20260504200336 57 0.0 0.0 0.00 0.00 0.00 55 948.0
20260504200035 57 0.0 0.0 0.00 0.00 0.00 55 948.0
20260504195736 58 0.0 0.0 0.00 0.00 0.00 55 948.0
20260504195436 58 0.0 0.0 0.00 0.00 0.00 55 948.0
20260504195136 58 0.0 0.0 0.00 0.00 0.00 55 948.0
20260504194835 58 0.0 0.0 0.00 0.00 0.00 55 948.0
20260504194536 58 0.0 0.0 0.00 0.00 0.00 55 948.0
20260504194236 58 0.0 0.0 0.00 0.00 0.00 55 948.0
20260504193936 58 0.0 0.0 0.00 0.00 0.00 55 948.0
20260504193636 58 0.0 0.0 0.00 0.00 0.00 55 948.6
20260504193035 58 0.0 0.0 0.00 0.00 0.00 54 948.0
20260504192735 58 0.0 0.0 0.00 0.00 0.00 54 948.0
20260504192135 59 0.0 0.0 0.00 0.00 0.00 51 948.0
20260504191835 59 0.0 0.0 0.00 0.00 0.00 51 948.0
20260504190936 59 0.0 0.0 0.00 0.00 0.00 49 947.0
20260504190636 59 0.0 0.0 0.00 0.00 0.00 49 947.0
20260504190336 59 0.0 0.0 0.00 0.00 0.00 49 947.0
20260504190035 59 0.0 0.0 0.00 0.00 0.00 49 947.0
20260504185736 60 0.0 0.0 0.00 0.00 0.00 47 947.8
20260504185436 60 0.0 0.0 0.00 0.00 0.00 47 947.8
20260504185135 60 0.0 0.0 0.00 0.00 0.00 47 947.8
20260504184836 60 0.0 0.0 0.00 0.00 0.00 47 947.8
20260504184536 60 0.0 0.0 0.00 0.00 0.00 47 947.8
20260504184235 60 0.0 0.0 0.00 0.00 0.00 47 947.8
20260504183936 61 0.0 0.0 0.00 0.00 0.00 46 947.0
20260504183636 61 0.0 0.0 0.00 0.00 0.00 46 947.0
20260504183336 61 0.0 0.0 0.00 0.00 0.00 46 947.0
20260504183036 61 0.0 0.0 0.00 0.00 0.00 46 947.0
20260504182736 61 0.0 0.0 0.00 0.00 0.00 46 947.0
20260504182436 61 0.0 0.0 0.00 0.00 0.00 46 947.0
20260504182136 61 0.0 0.0 0.00 0.00 0.00 46 947.0
20260504181836 61 0.0 0.0 0.00 0.00 0.00 46 947.0
20260504181536 61 0.0 0.0 0.00 0.00 0.00 46 947.0
20260504181236 61 0.0 0.0 0.00 0.00 0.00 45 947.5
20260504180935 61 0.0 0.0 0.00 0.00 0.00 45 947.5
20260504180635 61 0.0 0.0 0.00 0.00 0.00 45 947.5
20260504180336 61 0.0 0.0 0.00 0.00 0.00 45 947.5
20260504180036 61 0.0 0.0 0.00 0.00 0.00 45 947.5
20260504175436 61 0.0 0.0 0.00 0.00 0.00 45 947.5
20260504174836 61 0.0 0.0 0.00 0.00 0.00 45 947.5
20260504174236 62 0.0 0.0 0.00 0.00 0.00 44 947.0
20260504173936 63 0.0 0.0 0.00 0.00 0.00 44 947.0
20260504173636 63 0.0 0.0 0.00 0.00 0.00 44 947.0
20260504173335 63 0.0 0.0 0.00 0.00 0.00 44 947.0
20260504173036 63 0.0 0.0 0.00 0.00 0.00 44 947.0
20260504172735 63 0.0 0.0 0.00 0.00 0.00 44 947.0
20260504171236 63 0.0 0.0 0.00 0.00 0.00 43 947.0
20260504170635 64 0.0 0.0 0.00 0.00 0.00 41 947.0
20260504170335 64 0.0 0.0 0.00 0.00 0.00 41 947.0
20260504160336 65 0.0 0.0 0.00 0.00 0.00 44 947.0
20260504150635 66 0.0 0.0 0.00 0.00 0.00 46 947.0
20260504141236 65 0.0 0.0 0.00 0.00 0.00 53 948.0
20260504140636 64 0.0 0.0 0.00 0.00 0.00 53 948.0
20260504140336 65 0.0 0.0 0.00 0.00 0.00 52 948.0
20260504130635 64 0.0 0.0 0.00 0.00 0.00 55 948.0
20260504130335 64 0.0 0.0 0.00 0.00 0.00 55 948.0
20260504110636 67 0.0 0.0 0.00 0.00 0.00 46 948.0
20260504110336 67 0.0 0.0 0.00 0.00 0.00 46 948.0